[[{"header":{"parameterUnit":"m.s-1","parameterCategory":1,"la1":30.2991,"la2":30.254,"lo1":-89.0895,"lo2":-89.0444,"dy":0.0017,"dx":0.0017,"nx":28,"ny":28,"refTime":"2024-04-26T21:00:00:Z","depth":0,"parameterNumber":2,"parameterNumberName":"U-component_of_WINDS"},"data":[0,0,0,0,0,0,0,0,0,0,0,0,0,0,0,0,0,0,0,0,0,0,0,0,0,0,0,0,0,0,0,0,0,0,0,0,0,0,0,0,0,0,0,0,0,0,0,0,0,0,0,0,0,0,0,0,0,0,-5.9421,-5.9422,0,-5.9577,-5.9579,-5.958,-5.9552,-5.9549,-5.9547,-5.9544,-5.9703,-5.971,-5.9716,0,0,0,0,0,0,0,0,0,0,0,0,0,-5.9097,-5.9103,-5.942,-5.9422,-5.9424,-5.9577,-5.9579,-5.9581,-5.9553,-5.9549,-5.9546,-5.9543,-5.9701,-5.9709,-5.9717,0,0,0,0,0,0,0,0,0,0,0,0,0,-5.9244,-5.9105,-5.942,-5.9429,-5.9431,-5.9576,-5.9579,-5.9581,-5.9553,-5.9549,-5.9545,-5.9541,-5.9698,-5.9708,-5.9718,-5.9864,0,0,-5.9749,-5.9754,0,0,0,0,0,0,0,0,-5.9235,-5.9256,-5.9425,-5.9428,-5.9431,-5.9541,-5.9523,-5.9676,-5.9554,-5.9507,-5.9544,-5.9539,-5.9652,-5.9666,-5.9704,-5.9872,-5.9878,-5.975,-5.9756,-5.9761,-5.9764,0,0,0,0,0,0,0,-5.9225,-5.9249,-5.9482,-5.9428,-5.9431,-5.9424,-5.9441,-5.9552,-5.9601,-5.9511,-5.9509,-5.9528,-5.9653,-5.9695,-5.9708,-5.9881,-5.975,-5.9759,-5.9765,-5.9769,-6.0176,-6.018,0,0,0,0,0,0,-5.9212,-5.924,-5.9477,-5.9487,-5.9321,-5.9434,-5.9452,-5.951,-5.96,-5.9609,-5.9531,-5.9526,-5.9679,-5.9696,-5.9713,-5.9889,-5.9761,-5.977,-5.9776,-6.0171,-6.0177,-6.0182,0,0,0,0,0,0,-5.9206,-5.9234,-5.9471,-5.9363,-5.9393,-5.9444,-5.9509,-5.9515,-5.9556,-5.9615,-5.9624,-5.9565,-5.9677,-5.9699,-5.9827,-5.9894,-5.9775,-5.9784,-6.0166,-6.0173,-6.0179,-6.0242,0,0,0,0,0,0,-5.9196,-5.9232,-5.9287,-5.9365,-5.9399,-5.9582,-5.9513,-5.9521,-5.9574,-5.9569,-5.9649,-5.9658,-5.9675,-5.9812,-5.9837,-5.9906,-5.9792,-6.016,-6.0169,-6.0177,-6.0234,-6.0251,-6.0265,0,0,0,0,0,-5.9185,-5.9299,-5.929,-5.9319,-5.947,-5.9586,-5.9605,-5.9623,-5.958,-5.9636,-5.9674,-5.9656,-5.9884,-5.9825,-5.9853,-5.9926,-6.0155,-6.0166,-6.0176,-6.0228,-6.0247,-6.0264,0,0,0,0,0,0,-5.9227,-5.9309,-5.93,-5.9443,-5.9508,-5.9581,-5.9652,-5.9643,-5.9721,-5.9713,-5.9731,-5.9749,-5.9879,-5.9916,-5.9849,-6.0073,-6.0013,-6.003,-6.0043,-6.0062,-6.0077,-6.0064,-5.9801,0,0,0,0,0,-5.9253,-5.9341,-5.9408,-5.9527,-5.956,-5.9601,-5.9652,-5.966,-5.9728,-5.9755,-5.9802,-5.9868,-5.9955,-6.0011,-6.0094,-6.0241,-6.0257,-6.0306,-6.0321,-6.0333,-6.0346,-6.0425,-6.0447,-6.0216,-6.0216,-6.0216,0,0,-5.9307,-5.9363,-5.9417,-5.9537,-5.9588,-5.9678,-5.9624,-5.9721,-5.9788,-5.977,-5.9892,-5.993,-6.0005,-6.0143,-6.0206,-6.0178,-6.0414,-6.0346,-6.0355,-6.0362,-6.0438,-6.046,-6.0479,-6.0223,-6.0222,-6.0221,0,0,-5.9451,-5.9503,-5.9607,-5.966,-5.9739,-5.9765,-5.9791,-5.9866,-5.989,-6.0015,-6.0003,-6.0083,-6.0232,-6.0286,-6.0332,-6.05,-6.0484,-6.0527,-6.0603,-6.0681,-6.0699,-6.0715,-6.0773,-6.0793,-6.054,-6.054,-6.054,0,-5.9507,-5.9642,-5.9662,-5.9761,-5.9813,-5.9803,-5.9908,-5.9959,-6.006,-6.0097,-6.0064,-6.0251,-6.0301,-6.0451,-6.0492,-6.0531,-6.056,-6.0515,-6.0695,-6.0711,-6.0727,-6.0782,-6.0803,-6.0545,-6.0544,-6.0544,-6.0543,0,-5.9707,-5.9802,-5.9877,-5.9975,-6.0037,-6.0139,-6.0173,-6.0234,-6.0238,-6.0268,-6.0395,-6.0455,-6.055,-6.0587,-6.0591,-6.0738,-6.0718,-6.0691,-6.063,-6.0753,-6.0804,-6.0826,-6.0551,-6.0549,-6.0548,-6.0547,0,0,-5.9878,-5.9988,-6.0015,-6.0059,-6.0147,-6.0219,-6.0322,-6.0415,-6.0465,-6.0537,-6.0622,-6.0749,-6.0725,-6.0778,-6.079,-6.0858,-6.0984,-6.0822,-6.0824,-6.0848,-6.1147,-6.1164,-6.1189,-6.0977,-6.0981,-6.0984,-6.114,0,-6.0027,-6.0206,-6.0228,-6.0387,-6.0473,-6.0466,-6.0555,-6.0618,-6.065,-6.0728,-6.0764,-6.0853,-6.0816,-6.0847,-6.0915,-6.0954,-6.1044,-6.0944,-6.1054,-6.1058,-6.1032,-6.1216,-6.1235,-6.1378,-6.1161,-6.1164,-6.1167,0,-6.0225,-6.0302,-6.047,-6.0545,-6.0583,-6.0662,-6.0749,-6.0825,-6.0897,-6.0915,-6.0976,-6.0979,-6.1084,-6.1023,-6.1168,-6.1099,-6.1147,-6.1173,-6.1179,-6.1187,-6.1117,-6.1226,-6.1425,-6.1445,-6.1199,-6.1197,-6.1194,0,-6.0328,-6.0475,-6.0594,-6.0633,-6.0725,-6.0781,-6.0822,-6.089,-6.0945,-6.1022,-6.1057,-6.1146,-6.1194,-6.1262,-6.1289,-6.1243,-6.1432,-6.1374,-6.1449,-6.1448,-6.1485,-6.1482,-6.1691,-6.1522,-6.1521,-6.1521,-6.1521,0,-6.0491,-6.0593,-6.0642,-6.0715,-6.083,-6.0854,-6.0967,-6.1006,-6.1067,-6.1147,-6.1148,-6.1223,-6.1255,-6.1336,-6.1358,-6.1474,-6.1496,-6.1513,-6.1517,-6.1511,-6.1508,-6.1539,-6.1528,-6.1527,-6.1526,-6.1524,-6.1523,0,-6.0624,-6.0662,-6.079,-6.0868,-6.089,-6.0971,-6.1037,-6.1107,-6.114,-6.1242,-6.1267,-6.1318,-6.1413,-6.1448,-6.1563,-6.1578,-6.1711,-6.1709,-6.1686,-6.1686,-6.1758,-6.175,-6.1992,-6.2024,-6.1836,-6.1838,-6.184,0,-6.0723,-6.0802,-6.0888,-6.0942,-6.0985,-6.1072,-6.1129,-6.1157,-6.1216,-6.1305,-6.1364,-6.1459,-6.1536,-6.1688,-6.1735,-6.1824,-6.1822,-6.1901,-6.1835,-6.1826,-6.1819,-6.1813,-6.182,-6.1911,-6.1913,-6.1915,-6.1916,0,-6.0895,-6.091,-6.0991,-6.1079,-6.1147,-6.1218,-6.1286,-6.1331,-6.137,-6.1436,-6.1533,-6.1593,-6.1712,-6.1805,-6.1897,-6.1939,-6.1934,-6.1937,-6.1959,-6.1951,-6.1934,-6.1941,-6.1716,-6.193,-6.1929,-6.1928,-6.1927,-6.1926,-6.1012,-6.1081,-6.1153,-6.1243,-6.1299,-6.1363,-6.1433,-6.1475,-6.1557,-6.1655,-6.1668,-6.1772,-6.1844,-6.1966,-6.2013,-6.2095,-6.2073,-6.2105,-6.2112,-6.2119,-6.2122,-6.1924,-6.2112,-6.2111,-6.2111,-6.2111,-6.2111,0,-6.118,-6.1227,-6.131,-6.1407,-6.1478,-6.147,-6.1546,-6.1606,-6.1698,-6.1765,-6.1841,-6.1953,-6.2045,-6.21,-6.2192,-6.2247,-6.2247,-6.227,-6.2264,-6.2274,-6.2138,-6.2109,-6.2268,-6.2268,-6.2268,-6.2268,-6.2268,-6.2268,-6.1276,-6.1392,-6.1416,-6.156,-6.1606,-6.1708,-6.1752,-6.1812,-6.1865,-6.199,-6.2067,-6.2103,-6.2166,-6.2262,-6.2346,-6.236,-6.2392,-6.2417,-6.2429,-6.23,-6.2283,-6.2268,-6.224,-6.2425,-6.2425,-6.2557,-6.2558,-6.2559]},{"header":{"parameterUnit":"m.s-1","parameterCategory":1,"la1":30.2991,"la2":30.254,"lo1":-89.0895,"lo2":-89.0444,"dy":0.0017,"dx":0.0017,"nx":28,"ny":28,"refTime":"2024-04-26T21:00:00:Z","depth":0,"parameterNumber":3,"parameterNumberName":"V-component_of_WINDS"},"data":[0,0,0,0,0,0,0,0,0,0,0,0,0,0,0,0,0,0,0,0,0,0,0,0,0,0,0,0,0,0,0,0,0,0,0,0,0,0,0,0,0,0,0,0,0,0,0,0,0,0,0,0,0,0,0,0,0,0,2.747,2.747,0,2.747,2.747,2.747,2.7424,2.7423,2.7421,2.742,2.7419,2.7421,2.7422,0,0,0,0,0,0,0,0,0,0,0,0,0,2.743,2.7431,2.747,2.747,2.747,2.747,2.747,2.747,2.7424,2.7423,2.7421,2.742,2.7419,2.742,2.7422,0,0,0,0,0,0,0,0,0,0,0,0,0,2.7441,2.7431,2.747,2.7447,2.7445,2.747,2.747,2.747,2.7424,2.7423,2.7421,2.7419,2.7419,2.742,2.7422,2.7469,0,0,2.7427,2.7428,0,0,0,0,0,0,0,0,2.744,2.7442,2.7451,2.7449,2.7447,2.7445,2.7456,2.747,2.7425,2.7432,2.742,2.7418,2.7429,2.743,2.7434,2.7469,2.7469,2.7427,2.7428,2.7429,2.7429,0,0,0,0,0,0,0,2.7439,2.7442,2.747,2.7451,2.7448,2.7437,2.7436,2.7458,2.7441,2.7431,2.7428,2.7429,2.7428,2.7433,2.7434,2.7469,2.7427,2.7429,2.743,2.743,2.7544,2.7545,0,0,0,0,0,0,2.7442,2.7441,2.747,2.747,2.7439,2.7439,2.7439,2.7448,2.7441,2.7438,2.743,2.7427,2.7431,2.7432,2.7434,2.7489,2.7429,2.743,2.7431,2.7542,2.7544,2.7546,0,0,0,0,0,0,2.7441,2.7445,2.747,2.7455,2.7457,2.7442,2.7452,2.7449,2.7453,2.744,2.7437,2.7438,2.7429,2.7431,2.7461,2.7488,2.7431,2.7433,2.7539,2.7542,2.7545,2.7599,0,0,0,0,0,0,2.744,2.7445,2.7462,2.7456,2.7458,2.7498,2.7454,2.745,2.7456,2.7451,2.7446,2.7444,2.7428,2.7459,2.7463,2.7489,2.7434,2.7537,2.7541,2.7544,2.7595,2.7604,2.7611,0,0,0,0,0,2.7439,2.7477,2.7463,2.7467,2.748,2.7499,2.7501,2.7482,2.7459,2.7476,2.7468,2.7444,2.7485,2.7462,2.7466,2.7494,2.7535,2.7539,2.7544,2.7591,2.7602,2.7611,0,0,0,0,0,0,2.7486,2.7476,2.746,2.7498,2.75,2.7491,2.7513,2.7494,2.7502,2.7497,2.7473,2.7473,2.7506,2.7503,2.7478,2.754,2.7506,2.7511,2.754,2.755,2.7558,2.7558,2.7435,0,0,0,0,0,2.7501,2.7518,2.7508,2.7541,2.7543,2.7528,2.7536,2.7521,2.7522,2.7523,2.7517,2.7519,2.7532,2.7541,2.7552,2.7595,2.7593,2.7616,2.7624,2.7631,2.7635,2.7658,2.7668,2.7561,2.7561,2.7561,0,0,2.7531,2.7528,2.754,2.7551,2.7551,2.7569,2.7529,2.7549,2.7562,2.7526,2.7554,2.755,2.755,2.7587,2.7602,2.7585,2.7665,2.7636,2.7642,2.7643,2.7664,2.7674,2.7683,2.7564,2.7563,2.7563,0,0,2.7596,2.7595,2.7624,2.7625,2.7626,2.7616,2.7623,2.7618,2.7614,2.7642,2.7615,2.7631,2.7654,2.7656,2.766,2.7728,2.7706,2.7732,2.7774,2.7797,2.7805,2.7813,2.7837,2.7846,2.7737,2.7737,2.7737,0,2.7634,2.766,2.7641,2.7663,2.7669,2.7638,2.7667,2.7669,2.7674,2.7679,2.766,2.7689,2.7687,2.7724,2.7741,2.7745,2.7752,2.7732,2.7806,2.7813,2.782,2.7843,2.7852,2.774,2.774,2.774,2.774,0,2.7707,2.7725,2.7748,2.7755,2.7763,2.7789,2.7774,2.7785,2.7771,2.7763,2.7792,2.7789,2.78,2.7808,2.7793,2.7843,2.7832,2.781,2.7775,2.7833,2.7855,2.7863,2.7745,2.7744,2.7743,2.7742,0,0,2.7799,2.7796,2.7805,2.7808,2.7808,2.7822,2.7847,2.7858,2.7868,2.7873,2.7893,2.7915,2.7895,2.7899,2.7885,2.7905,2.796,2.788,2.788,2.7895,2.8015,2.8032,2.8042,2.7946,2.7948,2.7949,2.8015,0,2.7862,2.7904,2.7889,2.7932,2.795,2.7922,2.7944,2.7946,2.794,2.7954,2.7947,2.7963,2.7935,2.7938,2.7956,2.7949,2.7984,2.7944,2.7965,2.7966,2.7965,2.8053,2.807,2.8133,2.8023,2.8024,2.8026,0,2.794,2.795,2.7995,2.7994,2.8001,2.802,2.803,2.8044,2.8047,2.8041,2.8047,2.8029,2.8054,2.802,2.8054,2.8028,2.8035,2.8034,2.8036,2.8036,2.7999,2.8056,2.8152,2.8161,2.8038,2.8037,2.8036,0,2.8004,2.8028,2.8058,2.8062,2.8061,2.8075,2.8076,2.8076,2.8085,2.8094,2.8099,2.811,2.8116,2.8126,2.8111,2.8088,2.8147,2.8112,2.8143,2.8144,2.8156,2.8155,2.8255,2.8162,2.8162,2.8162,2.8161,0,2.8075,2.8104,2.8087,2.8106,2.8138,2.812,2.8152,2.8149,2.8151,2.8169,2.8145,2.8162,2.8143,2.8158,2.8147,2.8177,2.818,2.8176,2.8173,2.8178,2.8179,2.8182,2.8177,2.8164,2.8164,2.8163,2.8163,0,2.8151,2.814,2.8172,2.8169,2.8169,2.8193,2.819,2.8208,2.8201,2.8224,2.8228,2.8217,2.8234,2.8222,2.8238,2.8231,2.8271,2.8261,2.827,2.8267,2.8299,2.8296,2.8403,2.8417,2.8316,2.8317,2.8318,0,2.8197,2.8219,2.8219,2.823,2.8232,2.8249,2.8258,2.8242,2.8252,2.8258,2.8275,2.829,2.8302,2.8331,2.8324,2.8337,2.8328,2.8364,2.8329,2.8334,2.8328,2.8327,2.8329,2.8371,2.8372,2.8373,2.8374,0,2.828,2.8274,2.8288,2.8301,2.8313,2.8322,2.8329,2.8339,2.8323,2.8336,2.8354,2.8363,2.8381,2.8396,2.8407,2.8407,2.8388,2.8386,2.8393,2.8399,2.8403,2.8401,2.8289,2.8383,2.8382,2.8381,2.8381,2.8381,2.8342,2.8361,2.8364,2.8381,2.8385,2.8393,2.841,2.8406,2.8421,2.8434,2.8424,2.8446,2.8449,2.8462,2.8464,2.8481,2.8466,2.8477,2.848,2.8483,2.8487,2.8401,2.8483,2.8482,2.8482,2.8482,2.8482,0,2.8424,2.8426,2.8441,2.8453,2.8467,2.8449,2.8456,2.8469,2.8488,2.8493,2.8506,2.8527,2.8542,2.8538,2.8552,2.8566,2.8558,2.857,2.8569,2.8569,2.85,2.8492,2.8577,2.8577,2.8577,2.8577,2.8577,2.8577,2.8468,2.8499,2.8495,2.8528,2.8529,2.855,2.8556,2.8564,2.8568,2.8593,2.8606,2.8603,2.8605,2.8619,2.8633,2.8631,2.8637,2.8653,2.8648,2.8583,2.8574,2.8565,2.8557,2.8654,2.8654,2.8716,2.8716,2.8717]}]]